Flag for Switzerland Weather past 2 weeks in Einsiedeln, Schwyz, Switzerland

Now
46 °F

Cool.


Feels Like: 44 °F
Forecast: 39 / 46 °F
Wind: 3 mph from Southeast

Location: Altdorf

Current Time: Dec 18, 2014 at 3:32:50 PM

Latest Report: Dec 18, 2014 at 2:00 PM


Visibility: N/A

Pressure: 30.18 "Hg

Humidity: 95%

Dew point: 44 °F

Location of EinsiedelnLocation

Historic Weather in Einsiedeln — Graph

°F

Einsiedeln temperature yesterday

Maximum temperature yesterday: 44 °F (at 1:00 PM)
Minimum temperature yesterday: 39 °F (at 5:00 AM)
Average temperature yesterday: 41 °F

Past Weeks' High & Low Weather Summary

 TemperatureHumidityPressure
High59 °F (Dec 13, 1:00 PM)98% (Dec 16, 7:00 AM)30.47 "Hg (Dec 16, 7:00 AM)
Low29 °F (Dec 12, 7:00 AM)31% (Dec 12, 10:00 PM)29.82 "Hg (Dec 12, 10:00 PM)
Average42 °F80%30.10 "Hg
* Reported Dec 3 2:00 PM — Dec 18 2:00 PM, Einsiedeln, Weather by CustomWeather, © 2014

Note: Actual official high and low records may vary slightly from our data, if they occured in-between our weather recording intervals... More about our weather records

Advertising

Einsiedeln weather history for previous 24 hours

 ConditionsComfort  
Time TempWeatherWind HumidityBarometerVisibility
2:00 PM
Dec 18
46 °FCool.3 mph95%30.18 "HgN/A
1:00 PM45 °FOvercast.1 mph96%30.18 "Hg9 mi
12:00 PM45 °FQuite cool.2 mph95%30.18 "HgN/A
11:00 AM45 °FQuite cool.1 mph93%30.18 "HgN/A
10:00 AM43 °FPartly sunny.1 mph93%30.16 "Hg12 mi
9:00 AM42 °FQuite cool.3 mph95%30.16 "HgN/A
8:00 AM40 °FQuite cool.2 mph95%30.15 "HgN/A
7:00 AM39 °FPassing clouds.2 mph96%30.14 "Hg10 mi
6:00 AM39 °FChilly.2 mph96%30.14 "HgN/A
5:00 AM38 °FChilly.3 mph97%30.14 "HgN/A
4:00 AM37 °FOvercast.2 mph98%30.15 "Hg3 mi
3:00 AM37 °FChilly.No wind98%30.14 "HgN/A
2:00 AM40 °FChilly.2 mph98%30.12 "HgN/A
1:00 AM41 °FOvercast.No wind96%30.12 "Hg3 mi
12:00 AM40 °FQuite cool.2 mph97%30.11 "HgN/A
11:00 PM
Dec 17
41 °FQuite cool.2 mph96%30.09 "HgN/A
10:00 PM40 °FRain. Overcast.2 mph98%30.08 "Hg3 mi
9:00 PM40 °FQuite cool.2 mph97%30.07 "HgN/A
8:00 PM40 °FQuite cool.1 mph97%30.05 "HgN/A
7:00 PM40 °FRain. Overcast.No wind94%30.02 "Hg3 mi
6:00 PM41 °FQuite cool.5 mph92%29.99 "HgN/A
5:00 PM42 °FQuite cool.No wind98%29.98 "HgN/A
4:00 PM42 °FDrizzle. Overcast.1 mph94%29.95 "Hg9 mi
3:00 PM43 °FQuite cool.No wind82%29.93 "HgN/A
Weather by CustomWeather, © 2014

See weather overviewHow to use our weather pages